Ottumwa, IA

12:04 AM CDT on March 27, 2017 (GMT -0500)
Ottumwa Industrial

Weather History for KOTM - October, 2013

Change the Weather History Date:

Tuesday, October 29, 2013

  Actual Average Record
Temperature  
Mean Temperature 50 °F 48 °F  
Max Temperature 59 °F 58 °F 91 °F (1937)
Min Temperature 40 °F 37 °F 15 °F (1925)
Degree Days  
Heating Degree Days 15 17  
Month to date heating degree days 385 366  
Since 1 July heating degree days 468 487  
Cooling Degree Days 0 0  
Month to date cooling degree days 33 9  
Year to date cooling degree days 1014 936  
Moisture  
Dew Point 43 °F    
Average Humidity 75    
Maximum Humidity 89    
Minimum Humidity 61    
Precipitation  
Precipitation T in 0.09 in 2.28 in (1896)
Month to date precipitation 1.81 2.65  
Year to date precipitation 31.53 33.14  
Sea Level Pressure  
Sea Level Pressure 30.12 in    
Wind  
Wind Speed 11 mph (ESE)    
Max Wind Speed 18 mph    
Max Gust Speed 24 mph    
Visibility 9 miles    
Events Rain    
T = Trace of Precipitation, MM = Missing Value Source: NWS Daily Summary

Daily Weather History Graph

Daily Weather History Graph

Search for Another Location

Airport or City:

Trip Planner

Search our weather history database for the weather conditions in past years. The results will help you decide how hot, cold, wet, or windy it might be!

Date:

Astronomy

Oct. 29, 2013 Rise Set
Actual Time 7:37 AM CDT 6:08 PM CDT
Civil Twilight 7:09 AM CDT 6:37 PM CDT
Nautical Twilight 6:36 AM CDT 7:09 PM CDT
Astronomical Twilight 6:04 AM CDT 7:41 PM CDT
Moon 2:25 AM CDT (10/29) 3:25 PM CDT (10/29)
Length of Visible Light 11h 28m
Length of Day
10h 31m
Waning Crescent, 25% of the Moon is Illuminated
Oct 29
Waning Crescent
Nov 3
New
Nov 9
First Quarter
Nov 17
Full
Nov 25
Last Quarter

Hourly Weather History & Observations

Time (CDT) Temp. Windchill Dew Point Humidity Pressure Visibility Wind Dir Wind Speed Gust Speed Precip Events Conditions
12:53 AM 41.0 °F 35.2 °F 36.0 °F 82% 30.27 in 10.0 mi ENE 9.2 mph - N/A   Clear
1:53 AM 39.9 °F 32.9 °F 36.0 °F 86% 30.26 in 10.0 mi East 11.5 mph - N/A   Clear
2:53 AM 41.0 °F 33.9 °F 37.0 °F 86% 30.25 in 10.0 mi East 12.7 mph - N/A   Clear
3:53 AM 41.0 °F 33.9 °F 37.0 °F 86% 30.23 in 10.0 mi East 12.7 mph - N/A   Clear
4:53 AM 41.0 °F 32.8 °F 36.0 °F 82% 30.21 in 10.0 mi East 16.1 mph 24.2 mph N/A   Clear
5:53 AM 39.9 °F 31.1 °F 36.0 °F 86% 30.21 in 10.0 mi East 17.3 mph - N/A   Scattered Clouds
6:53 AM 39.9 °F 33.4 °F 36.0 °F 86% 30.22 in 10.0 mi East 10.4 mph - N/A   Mostly Cloudy
7:53 AM 39.9 °F 33.9 °F 36.0 °F 86% 30.22 in 10.0 mi East 9.2 mph - N/A   Overcast
8:53 AM 41.0 °F 34.3 °F 37.0 °F 86% 30.23 in 9.0 mi East 11.5 mph - N/A   Mostly Cloudy
9:53 AM 44.1 °F 37.4 °F 37.9 °F 79% 30.20 in 9.0 mi ESE 13.8 mph - N/A   Partly Cloudy
10:53 AM 48.0 °F - 39.0 °F 71% 30.19 in 10.0 mi ESE 13.8 mph - N/A   Clear
11:53 AM 52.0 °F - 39.9 °F 63% 30.17 in 10.0 mi ESE 10.4 mph - N/A   Mostly Cloudy
12:53 PM 55.0 °F - 43.0 °F 64% 30.14 in 10.0 mi SE 11.5 mph - N/A   Mostly Cloudy
1:36 PM 55.4 °F - 44.6 °F 67% 30.11 in 10.0 mi ESE 9.2 mph - N/A   Overcast
1:53 PM 55.9 °F - 44.1 °F 64% 30.12 in 10.0 mi SE 8.1 mph - N/A   Overcast
2:34 PM 55.4 °F - 44.6 °F 67% 30.09 in 10.0 mi SE 11.5 mph - N/A   Overcast
2:53 PM 55.9 °F - 45.0 °F 67% 30.08 in 10.0 mi ESE 9.2 mph - N/A   Overcast
3:53 PM 57.0 °F - 45.0 °F 64% 30.07 in 10.0 mi ESE 11.5 mph - N/A   Overcast
4:08 PM 57.2 °F - 44.6 °F 63% 30.06 in 10.0 mi ESE 9.2 mph - N/A   Overcast
4:33 PM 57.2 °F - 44.6 °F 63% 30.05 in 10.0 mi ESE 11.5 mph - N/A   Mostly Cloudy
4:53 PM 57.0 °F - 44.1 °F 62% 30.06 in 10.0 mi ESE 11.5 mph - N/A   Partly Cloudy
5:17 PM 57.2 °F - 44.6 °F 63% 30.05 in 10.0 mi East 11.5 mph - N/A   Mostly Cloudy
5:53 PM 55.9 °F - 44.1 °F 64% 30.05 in 10.0 mi East 11.5 mph - N/A   Overcast
6:53 PM 54.0 °F - 46.0 °F 75% 30.06 in 10.0 mi ESE 10.4 mph - N/A   Overcast
7:10 PM 53.6 °F - 46.4 °F 77% 30.05 in 10.0 mi ESE 9.2 mph - N/A   Overcast
7:53 PM 54.0 °F - 45.0 °F 72% 30.06 in 10.0 mi ESE 9.2 mph - N/A   Overcast
8:36 PM 53.6 °F - 46.4 °F 77% 30.05 in 10.0 mi ESE 9.2 mph - N/A   Overcast
8:43 PM 53.6 °F - 48.2 °F 82% 30.05 in 9.0 mi ESE 9.2 mph - N/A   Overcast
8:53 PM 53.1 °F - 48.9 °F 86% 30.06 in 7.0 mi SE 13.8 mph - N/A   Overcast
9:19 PM 53.6 °F - 50.0 °F 88% 30.05 in 5.0 mi ESE 11.5 mph - N/A   Overcast
9:53 PM 52.0 °F - 48.9 °F 89% 30.06 in 6.0 mi ESE 10.4 mph - N/A   Overcast
10:53 PM 52.0 °F - 50.0 °F 93% 30.06 in 5.0 mi ESE 10.4 mph - 0.00 in Rain Light Rain
11:53 PM 52.0 °F - 51.1 °F 97% 30.04 in 3.0 mi SE 10.4 mph - N/A   Overcast